RYR315R LEPA-EKCH

Flight info

Callsign RYR315R
Flight time 2h 54m
Altitude 38000
Route MEROS DCT LAPIT DCT CHELY DCT LUMAS DCT MAXIR DCT LUSOL DCT BODRU DCT OKTET DCT IRMAR DCT KINES DCT VANAS DCT MOBLO DCT UBIMA DCT SOSAL DCT KORED DCT BERSU DCT DITON DCT LOKTA DCT TEDGO DCT HAREM DCT LOHRE DCT BERXO DCT MAKEL N851 GESKA Z711 MONAK
Aircraft B38M/M-SDE1FGHILORVWXY/HB1

Departure

Time 2026-04-22 07:57
Airport Palma de Mallorca Airport (LEPA)

Arrival

Time 2026-04-22 10:52
Airport Copenhagen Kastrup Airport (EKCH)
Time Latitude Longitude Altitude Speed Heading
2026-04-22 07:21 39.54798 2.73595 39 ft 0 kts 58°
2026-04-22 07:47 39.54796 2.73591 41 ft 3 kts 58°
2026-04-22 07:47 39.54785 2.73567 37 ft 4 kts 50°
2026-04-22 07:47 39.54764 2.73550 35 ft 4 kts
2026-04-22 07:47 39.54740 2.73555 39 ft 4 kts 330°
2026-04-22 07:48 39.54718 2.73571 38 ft 3 kts 329°
2026-04-22 07:48 39.54716 2.73573 39 ft 0 kts 329°
2026-04-22 07:50 39.54718 2.73571 38 ft 2 kts 329°
2026-04-22 07:50 39.54760 2.73538 39 ft 12 kts 321°
2026-04-22 07:51 39.54764 2.73465 38 ft 5 kts 221°
2026-04-22 07:51 39.54732 2.73471 41 ft 7 kts 155°
2026-04-22 07:51 39.54662 2.73524 41 ft 12 kts 149°
2026-04-22 07:51 39.54617 2.73605 38 ft 11 kts 113°
2026-04-22 07:52 39.54585 2.73686 41 ft 11 kts 80°
2026-04-22 07:52 39.54630 2.73789 41 ft 18 kts 58°
2026-04-22 07:52 39.54710 2.73958 41 ft 25 kts 58°
2026-04-22 07:52 39.54793 2.74114 41 ft 16 kts 29°
2026-04-22 07:53 39.54895 2.74072 41 ft 17 kts 328°
2026-04-22 07:53 39.55005 2.73985 41 ft 21 kts 328°
2026-04-22 07:53 39.55162 2.73861 41 ft 31 kts 329°
2026-04-22 07:53 39.55350 2.73713 41 ft 28 kts 328°
2026-04-22 07:54 39.55497 2.73597 40 ft 23 kts 328°
2026-04-22 07:54 39.55603 2.73514 39 ft 15 kts 328°
2026-04-22 07:54 39.55684 2.73558 41 ft 15 kts 58°
2026-04-22 07:54 39.55744 2.73683 41 ft 17 kts 58°
2026-04-22 07:55 39.55816 2.73839 41 ft 24 kts 60°
2026-04-22 07:55 39.55916 2.74053 40 ft 28 kts 58°
2026-04-22 07:55 39.56006 2.74237 41 ft 20 kts 47°
2026-04-22 07:55 39.56094 2.74304 41 ft 11 kts 28°
2026-04-22 07:56 39.56169 2.74350 41 ft 13 kts
2026-04-22 07:56 39.56230 2.74295 41 ft 9 kts 278°
2026-04-22 07:56 39.56214 2.74238 38 ft 0 kts 239°
2026-04-22 07:57 39.56145 2.74090 41 ft 55 kts 238°
2026-04-22 07:57 39.55810 2.73382 38 ft 126 kts 238°
2026-04-22 07:57 39.55259 2.72211 177 ft 168 kts 239°
2026-04-22 07:57 39.54637 2.70865 808 ft 179 kts 239°
2026-04-22 07:58 39.53985 2.69484 1629 ft 180 kts 237°
2026-04-22 07:58 39.53288 2.68074 2251 ft 193 kts 237°
2026-04-22 07:58 39.52543 2.66583 2923 ft 203 kts 237°
2026-04-22 07:58 39.51755 2.64963 3514 ft 221 kts 238°
2026-04-22 07:59 39.50939 2.63258 4366 ft 224 kts 237°
2026-04-22 07:59 39.50101 2.61544 5223 ft 229 kts 236°
2026-04-22 07:59 39.49037 2.59946 5907 ft 241 kts 221°
2026-04-22 07:59 39.47610 2.58732 6590 ft 253 kts 210°
2026-04-22 08:00 39.46018 2.57615 7169 ft 269 kts 210°
2026-04-22 08:00 39.44323 2.56424 7705 ft 285 kts 207°
2026-04-22 08:00 39.42389 2.55854 8597 ft 290 kts 181°
2026-04-22 08:00 39.40418 2.56398 9331 ft 302 kts 156°
2026-04-22 08:01 39.38729 2.58020 10116 ft 308 kts 131°
2026-04-22 08:01 39.37334 2.60209 10598 ft 325 kts 134°
2026-04-22 08:01 39.35735 2.62366 11072 ft 339 kts 134°
2026-04-22 08:01 39.34101 2.64608 11793 ft 344 kts 134°
2026-04-22 08:02 39.32462 2.66882 12599 ft 348 kts 133°
2026-04-22 08:02 39.30817 2.69180 13373 ft 352 kts 133°
2026-04-22 08:02 39.29378 2.71747 14107 ft 357 kts 116°
2026-04-22 08:02 39.28658 2.74808 14833 ft 358 kts 96°
2026-04-22 08:03 39.28621 2.78032 15527 ft 361 kts 89°
2026-04-22 08:03 39.28598 2.81287 16212 ft 365 kts 90°
2026-04-22 08:03 39.28568 2.84580 16917 ft 368 kts 90°
2026-04-22 08:03 39.28542 2.87905 17597 ft 372 kts 90°
2026-04-22 08:04 39.28539 2.91251 18246 ft 375 kts 85°
2026-04-22 08:04 39.29117 2.94529 18809 ft 376 kts 65°
2026-04-22 08:04 39.30325 2.97519 19334 ft 379 kts 59°
2026-04-22 08:04 39.31613 3.00514 19856 ft 383 kts 59°
2026-04-22 08:05 39.32927 3.03523 20421 ft 386 kts 59°
2026-04-22 08:05 39.34259 3.06544 20957 ft 389 kts 59°
2026-04-22 08:05 39.35611 3.09597 21489 ft 393 kts 59°
2026-04-22 08:05 39.36974 3.12669 22027 ft 396 kts 59°
2026-04-22 08:06 39.38353 3.15778 22563 ft 400 kts 59°
2026-04-22 08:06 39.39746 3.18921 23087 ft 404 kts 59°
2026-04-22 08:06 39.41149 3.22091 23616 ft 407 kts 59°
2026-04-22 08:06 39.42566 3.25270 24043 ft 410 kts 58°
2026-04-22 08:07 39.44039 3.28453 24490 ft 413 kts 57°
2026-04-22 08:07 39.45519 3.31656 24916 ft 417 kts 57°
2026-04-22 08:07 39.47008 3.34890 25341 ft 420 kts 57°
2026-04-22 08:07 39.48507 3.38148 25760 ft 423 kts 57°
2026-04-22 08:08 39.50016 3.41435 26157 ft 426 kts 57°
2026-04-22 08:08 39.51535 3.44745 26574 ft 429 kts 57°
2026-04-22 08:08 39.53046 3.48042 26982 ft 432 kts 57°
2026-04-22 08:08 39.54603 3.51444 27379 ft 435 kts 57°
2026-04-22 08:09 39.56151 3.54828 27771 ft 438 kts 57°
2026-04-22 08:09 39.57687 3.58191 28158 ft 441 kts 57°
2026-04-22 08:09 39.59252 3.61621 28549 ft 444 kts 57°
2026-04-22 08:09 39.60828 3.65078 28913 ft 446 kts 57°
2026-04-22 08:10 39.62409 3.68551 29284 ft 449 kts 57°
2026-04-22 08:10 39.64000 3.72049 29648 ft 452 kts 57°
2026-04-22 08:10 39.65601 3.75573 30006 ft 454 kts 57°
2026-04-22 08:10 39.67208 3.79115 30318 ft 457 kts 57°
2026-04-22 08:11 39.68822 3.82674 30634 ft 459 kts 57°
2026-04-22 08:11 39.70442 3.86253 30941 ft 461 kts 57°
2026-04-22 08:11 39.72067 3.89847 31244 ft 463 kts 57°
2026-04-22 08:11 39.73697 3.93457 31540 ft 465 kts 57°
2026-04-22 08:12 39.75338 3.97092 31843 ft 467 kts 57°
2026-04-22 08:12 39.76984 4.00745 32131 ft 469 kts 57°
2026-04-22 08:12 39.78633 4.04408 32416 ft 471 kts 57°
2026-04-22 08:12 39.80292 4.08097 32702 ft 473 kts 57°
2026-04-22 08:13 39.81955 4.11798 32986 ft 475 kts 57°
2026-04-22 08:13 39.83657 4.15492 33260 ft 476 kts 52°
2026-04-22 08:13 39.85839 4.18683 33515 ft 470 kts 36°
2026-04-22 08:13 39.88516 4.21055 33785 ft 463 kts 21°
2026-04-22 08:14 39.91512 4.22460 34125 ft 454 kts
2026-04-22 08:14 39.94587 4.23369 34400 ft 454 kts
2026-04-22 08:14 39.97684 4.24198 34683 ft 454 kts
2026-04-22 08:14 40.00786 4.24977 34987 ft 454 kts
2026-04-22 08:15 40.03885 4.25729 35274 ft 453 kts
2026-04-22 08:15 40.06990 4.26467 35555 ft 453 kts
2026-04-22 08:15 40.10094 4.27200 35830 ft 453 kts
2026-04-22 08:15 40.13197 4.27932 36108 ft 453 kts
2026-04-22 08:16 40.16302 4.28665 36368 ft 453 kts
2026-04-22 08:16 40.19405 4.29398 36623 ft 453 kts
2026-04-22 08:16 40.22505 4.30130 36873 ft 453 kts
2026-04-22 08:16 40.25608 4.30864 37114 ft 453 kts
2026-04-22 08:17 40.28708 4.31598 37367 ft 453 kts
2026-04-22 08:17 40.31801 4.32331 37602 ft 452 kts
2026-04-22 08:17 40.34864 4.33058 37824 ft 452 kts
2026-04-22 08:17 40.37959 4.33792 37989 ft 453 kts
2026-04-22 08:18 40.44156 4.35266 37981 ft 450 kts
2026-04-22 08:18 40.50317 4.36734 37986 ft 450 kts
2026-04-22 08:19 40.56472 4.38203 37986 ft 449 kts
2026-04-22 08:19 40.62618 4.39672 37985 ft 449 kts
2026-04-22 08:20 40.68758 4.41143 37984 ft 448 kts
2026-04-22 08:20 40.74899 4.42617 37985 ft 448 kts
2026-04-22 08:21 40.81027 4.44090 37980 ft 448 kts
2026-04-22 08:21 40.87159 4.45567 37985 ft 448 kts
2026-04-22 08:22 40.93279 4.47048 37986 ft 447 kts
2026-04-22 08:22 40.99396 4.48531 37987 ft 447 kts
2026-04-22 08:23 41.05503 4.50014 37983 ft 446 kts
2026-04-22 08:23 41.11606 4.51498 37984 ft 446 kts
2026-04-22 08:24 41.17700 4.52983 37985 ft 445 kts
2026-04-22 08:24 41.23790 4.54470 37984 ft 445 kts
2026-04-22 08:25 41.29877 4.55958 37986 ft 444 kts
2026-04-22 08:25 41.35947 4.57446 37982 ft 444 kts
2026-04-22 08:26 41.42018 4.58936 37987 ft 443 kts
2026-04-22 08:26 41.48079 4.60427 37989 ft 443 kts
2026-04-22 08:27 41.54133 4.61919 37989 ft 442 kts
2026-04-22 08:27 41.60178 4.63411 37992 ft 442 kts
2026-04-22 08:28 41.66178 4.64896 37988 ft 441 kts
2026-04-22 08:28 41.72205 4.66479 37981 ft 444 kts 13°
2026-04-22 08:29 41.75036 4.68202 38000 ft 451 kts 26°
2026-04-22 08:29 41.77753 4.70327 37968 ft 453 kts 25°
2026-04-22 08:29 41.83198 4.74605 38003 ft 454 kts 26°
2026-04-22 08:30 41.88620 4.78956 38000 ft 454 kts 26°
2026-04-22 08:30 41.94031 4.83318 38005 ft 453 kts 26°
2026-04-22 08:31 41.99436 4.87684 38001 ft 453 kts 26°
2026-04-22 08:32 42.07539 4.94247 38007 ft 453 kts 26°
2026-04-22 08:32 42.12932 4.98627 37997 ft 453 kts 26°
2026-04-22 08:33 42.18323 5.03014 38006 ft 452 kts 26°
2026-04-22 08:33 42.23711 5.07406 38005 ft 452 kts 26°
2026-04-22 08:34 42.29090 5.11800 38010 ft 452 kts 26°
2026-04-22 08:34 42.34468 5.16203 38006 ft 452 kts 26°
2026-04-22 08:35 42.38933 5.19865 38005 ft 451 kts 26°
2026-04-22 08:35 42.45203 5.25017 38015 ft 451 kts 26°
2026-04-22 08:36 42.49648 5.28678 38010 ft 450 kts 26°
2026-04-22 08:36 42.54983 5.33079 38008 ft 448 kts 26°
2026-04-22 08:37 42.60302 5.37476 38017 ft 447 kts 26°
2026-04-22 08:37 42.65595 5.41860 38011 ft 445 kts 26°
2026-04-22 08:38 42.70871 5.46239 38013 ft 443 kts 26°
2026-04-22 08:38 42.76129 5.50611 38018 ft 443 kts 26°
2026-04-22 08:39 42.81374 5.54983 38018 ft 442 kts 26°
2026-04-22 08:39 42.86609 5.59354 38023 ft 441 kts 26°
2026-04-22 08:40 42.91837 5.63727 38020 ft 440 kts 26°
2026-04-22 08:40 42.97052 5.68100 38022 ft 440 kts 26°
2026-04-22 08:41 43.02266 5.72480 38026 ft 440 kts 26°
2026-04-22 08:41 43.07468 5.76859 38033 ft 439 kts 26°
2026-04-22 08:42 43.12670 5.81247 38034 ft 439 kts 26°
2026-04-22 08:42 43.17866 5.85637 38040 ft 438 kts 26°
2026-04-22 08:43 43.23052 5.90030 38039 ft 438 kts 26°
2026-04-22 08:43 43.28234 5.94425 38042 ft 438 kts 27°
2026-04-22 08:44 43.33379 5.98798 38042 ft 437 kts 27°
2026-04-22 08:44 43.38627 6.02997 38041 ft 431 kts 15°
2026-04-22 08:44 43.41489 6.03943 38059 ft 420 kts
2026-04-22 08:45 43.44400 6.04372 38043 ft 422 kts
2026-04-22 08:45 43.50250 6.05098 38056 ft 422 kts
2026-04-22 08:46 43.56097 6.05718 38042 ft 421 kts 360°
2026-04-22 08:46 43.61945 6.06310 38049 ft 421 kts 360°
2026-04-22 08:47 43.67784 6.06900 38051 ft 421 kts 360°
2026-04-22 08:47 43.73628 6.07491 38045 ft 421 kts 360°
2026-04-22 08:47 43.76538 6.08002 38031 ft 425 kts 11°
2026-04-22 08:48 43.79308 6.09510 38054 ft 431 kts 20°
2026-04-22 08:48 43.84751 6.13065 38044 ft 433 kts 20°
2026-04-22 08:49 43.90167 6.16716 38046 ft 432 kts 21°
2026-04-22 08:49 43.95560 6.20395 38034 ft 432 kts 21°
2026-04-22 08:50 44.00946 6.24082 38044 ft 431 kts 21°
2026-04-22 08:50 44.06318 6.27766 38044 ft 430 kts 21°
2026-04-22 08:51 44.11692 6.31459 38026 ft 430 kts 21°
2026-04-22 08:51 44.17053 6.35151 38049 ft 430 kts 21°
2026-04-22 08:52 44.22409 6.38845 38016 ft 429 kts 21°
2026-04-22 08:52 44.27760 6.42545 38065 ft 430 kts 21°
2026-04-22 08:53 44.33116 6.46253 38029 ft 429 kts 21°
2026-04-22 08:53 44.38465 6.49966 38051 ft 430 kts 21°
2026-04-22 08:54 44.43816 6.53686 38043 ft 429 kts 21°
2026-04-22 08:54 44.49163 6.57411 38066 ft 429 kts 21°
2026-04-22 08:55 44.54502 6.61139 38058 ft 428 kts 21°
2026-04-22 08:55 44.59830 6.64866 38068 ft 427 kts 21°
2026-04-22 08:56 44.65147 6.68592 38066 ft 427 kts 21°
2026-04-22 08:56 44.70459 6.72324 38092 ft 427 kts 21°
2026-04-22 08:57 44.75741 6.76041 38087 ft 427 kts 21°
2026-04-22 08:57 44.81240 6.78552 38102 ft 407 kts 357°
2026-04-22 08:58 44.86898 6.78483 38116 ft 407 kts 354°
2026-04-22 08:58 44.92556 6.78200 38107 ft 407 kts 353°
2026-04-22 08:59 44.98228 6.77844 38113 ft 408 kts 353°
2026-04-22 08:59 45.03891 6.77471 38125 ft 407 kts 353°
2026-04-22 09:00 45.09547 6.77097 38136 ft 407 kts 353°
2026-04-22 09:00 45.15216 6.76721 38069 ft 407 kts 353°
2026-04-22 09:01 45.20871 6.76346 38138 ft 408 kts 353°
2026-04-22 09:01 45.26524 6.75969 38097 ft 404 kts 353°
2026-04-22 09:02 45.32158 6.75592 38113 ft 407 kts 353°
2026-04-22 09:02 45.37807 6.75216 38082 ft 406 kts 353°
2026-04-22 09:03 45.43441 6.74840 38071 ft 405 kts 353°
2026-04-22 09:03 45.49078 6.74455 38072 ft 406 kts 353°
2026-04-22 09:04 45.54683 6.74074 38083 ft 405 kts 353°
2026-04-22 09:04 45.60330 6.73686 38060 ft 404 kts 353°
2026-04-22 09:05 45.65914 6.73303 38065 ft 404 kts 352°
2026-04-22 09:05 45.71521 6.72919 38060 ft 403 kts 353°
2026-04-22 09:06 45.77114 6.72534 38072 ft 403 kts 353°
2026-04-22 09:06 45.82698 6.72151 38029 ft 401 kts 352°
2026-04-22 09:07 45.88263 6.71774 38098 ft 402 kts 352°
2026-04-22 09:07 45.93848 6.71394 38068 ft 401 kts 352°
2026-04-22 09:08 45.99444 6.71014 37978 ft 401 kts 352°
2026-04-22 09:08 46.05013 6.70633 38073 ft 402 kts 352°
2026-04-22 09:09 46.10590 6.70255 38066 ft 401 kts 353°
2026-04-22 09:09 46.13391 6.70625 38044 ft 410 kts
2026-04-22 09:09 46.16152 6.71730 38081 ft 414 kts
2026-04-22 09:10 46.21708 6.73963 38073 ft 415 kts 10°
2026-04-22 09:10 46.27256 6.76288 38075 ft 415 kts 10°
2026-04-22 09:11 46.32799 6.78636 38075 ft 415 kts 10°
2026-04-22 09:11 46.38352 6.80995 38089 ft 416 kts 10°
2026-04-22 09:12 46.43891 6.83354 38094 ft 415 kts 10°
2026-04-22 09:12 46.49433 6.85718 38098 ft 415 kts 11°
2026-04-22 09:13 46.54883 6.88573 38088 ft 426 kts 26°
2026-04-22 09:13 46.57192 6.91341 38116 ft 438 kts 41°
2026-04-22 09:13 46.59190 6.94738 38116 ft 444 kts 43°
2026-04-22 09:14 46.63134 7.01656 38126 ft 445 kts 44°
2026-04-22 09:14 46.67029 7.08652 38142 ft 445 kts 44°
2026-04-22 09:15 46.70911 7.15673 38130 ft 445 kts 44°
2026-04-22 09:15 46.74791 7.22711 38153 ft 445 kts 44°
2026-04-22 09:16 46.78683 7.29789 38124 ft 449 kts 45°
2026-04-22 09:16 46.82592 7.36914 38139 ft 450 kts 45°
2026-04-22 09:17 46.86501 7.44068 38127 ft 451 kts 45°
2026-04-22 09:17 46.90404 7.51237 38138 ft 451 kts 45°
2026-04-22 09:18 46.94311 7.58430 38138 ft 452 kts 45°
2026-04-22 09:18 46.98215 7.65635 38143 ft 452 kts 45°
2026-04-22 09:19 47.02091 7.72808 38134 ft 452 kts 45°
2026-04-22 09:19 47.05986 7.80035 38138 ft 452 kts 46°
2026-04-22 09:20 47.09884 7.87287 38165 ft 452 kts 46°
2026-04-22 09:20 47.13723 7.94612 38173 ft 456 kts 52°
2026-04-22 09:21 47.17130 8.02504 38186 ft 458 kts 52°
2026-04-22 09:21 47.19703 8.08529 38188 ft 457 kts 52°
2026-04-22 09:22 47.23055 8.16409 38193 ft 457 kts 52°
2026-04-22 09:22 47.26419 8.24339 38192 ft 457 kts 52°
2026-04-22 09:23 47.29933 8.32093 38166 ft 448 kts 40°
2026-04-22 09:23 47.32283 8.34983 38223 ft 437 kts 29°
2026-04-22 09:23 47.34791 8.37557 38188 ft 439 kts 29°
2026-04-22 09:24 47.39854 8.42597 38210 ft 439 kts 28°
2026-04-22 09:24 47.44949 8.47562 38217 ft 439 kts 28°
2026-04-22 09:25 47.50061 8.52526 38213 ft 439 kts 28°
2026-04-22 09:25 47.55167 8.57495 38219 ft 439 kts 28°
2026-04-22 09:26 47.60273 8.62475 38205 ft 440 kts 28°
2026-04-22 09:26 47.65383 8.67470 38202 ft 440 kts 28°
2026-04-22 09:27 47.70492 8.72478 38198 ft 441 kts 28°
2026-04-22 09:27 47.75608 8.77503 38192 ft 441 kts 29°
2026-04-22 09:28 47.80721 8.82538 38198 ft 441 kts 29°
2026-04-22 09:28 47.85840 8.87590 38201 ft 441 kts 29°
2026-04-22 09:29 47.90956 8.92652 38202 ft 442 kts 29°
2026-04-22 09:29 47.96074 8.97728 38211 ft 442 kts 29°
2026-04-22 09:30 48.01163 9.02788 38203 ft 442 kts 29°
2026-04-22 09:30 48.06315 9.07923 38216 ft 442 kts 30°
2026-04-22 09:31 48.11434 9.13035 38222 ft 442 kts 29°
2026-04-22 09:31 48.16704 9.17636 38204 ft 432 kts 13°
2026-04-22 09:32 48.22539 9.19128 38216 ft 430 kts
2026-04-22 09:32 48.28469 9.20237 38229 ft 429 kts
2026-04-22 09:33 48.34407 9.21262 38231 ft 430 kts
2026-04-22 09:33 48.40354 9.22268 38247 ft 430 kts
2026-04-22 09:34 48.46309 9.23278 38250 ft 431 kts
2026-04-22 09:34 48.52271 9.24290 38258 ft 431 kts
2026-04-22 09:35 48.61214 9.25807 38267 ft 431 kts
2026-04-22 09:35 48.67184 9.26708 38270 ft 431 kts
2026-04-22 09:36 48.73151 9.27620 38266 ft 431 kts
2026-04-22 09:36 48.79120 9.28535 38266 ft 431 kts
2026-04-22 09:37 48.85097 9.29453 38260 ft 431 kts
2026-04-22 09:37 48.91069 9.30373 38260 ft 432 kts
2026-04-22 09:38 48.97052 9.31297 38257 ft 432 kts
2026-04-22 09:38 49.03033 9.32223 38268 ft 432 kts
2026-04-22 09:39 49.09022 9.33152 38269 ft 433 kts
2026-04-22 09:39 49.15018 9.34085 38277 ft 433 kts
2026-04-22 09:40 49.21017 9.35019 38277 ft 434 kts
2026-04-22 09:40 49.27023 9.35959 38281 ft 434 kts
2026-04-22 09:41 49.33033 9.36900 38287 ft 434 kts
2026-04-22 09:41 49.39047 9.37845 38279 ft 434 kts
2026-04-22 09:42 49.45060 9.38792 38284 ft 435 kts
2026-04-22 09:42 49.51081 9.39742 38291 ft 435 kts
2026-04-22 09:43 49.57106 9.40695 38289 ft 435 kts
2026-04-22 09:43 49.63131 9.41652 38298 ft 436 kts
2026-04-22 09:44 49.69119 9.42604 38295 ft 435 kts
2026-04-22 09:44 49.75152 9.43567 38299 ft 436 kts
2026-04-22 09:45 49.81187 9.44532 38304 ft 436 kts
2026-04-22 09:45 49.87225 9.45500 38304 ft 436 kts
2026-04-22 09:46 49.93271 9.46472 38305 ft 437 kts
2026-04-22 09:46 49.99317 9.47446 38309 ft 437 kts
2026-04-22 09:47 50.05371 9.48425 38308 ft 437 kts
2026-04-22 09:47 50.11354 9.50207 38313 ft 439 kts 10°
2026-04-22 09:48 50.17324 9.52190 38308 ft 439 kts 11°
2026-04-22 09:48 50.23295 9.54191 38312 ft 439 kts 11°
2026-04-22 09:49 50.29268 9.56198 38314 ft 439 kts 11°
2026-04-22 09:49 50.35236 9.58208 38325 ft 439 kts 11°
2026-04-22 09:50 50.41202 9.60224 38329 ft 439 kts 11°
2026-04-22 09:50 50.47163 9.62242 38333 ft 438 kts 11°
2026-04-22 09:51 50.53123 9.64266 38340 ft 438 kts 11°
2026-04-22 09:51 50.59082 9.66294 38338 ft 438 kts 11°
2026-04-22 09:52 50.65044 9.68329 38350 ft 438 kts 11°
2026-04-22 09:52 50.71003 9.70367 38346 ft 438 kts 11°
2026-04-22 09:53 50.76961 9.72412 38345 ft 438 kts 11°
2026-04-22 09:53 50.82926 9.74463 38350 ft 439 kts 11°
2026-04-22 09:54 50.88897 9.76522 38340 ft 439 kts 11°
2026-04-22 09:54 50.94822 9.78570 38201 ft 437 kts 12°
2026-04-22 09:55 50.97770 9.79592 38361 ft 432 kts 12°
2026-04-22 09:55 51.00697 9.80608 38367 ft 431 kts 12°
2026-04-22 09:55 51.06538 9.82638 38354 ft 429 kts 13°
2026-04-22 09:56 51.12374 9.84671 38354 ft 429 kts 13°
2026-04-22 09:56 51.18191 9.86703 38354 ft 429 kts 13°
2026-04-22 09:57 51.23971 9.89055 38357 ft 428 kts 19°
2026-04-22 09:57 51.29614 9.92132 38353 ft 428 kts 19°
2026-04-22 09:58 51.35247 9.95239 38360 ft 428 kts 19°
2026-04-22 09:58 51.40882 9.98360 38358 ft 428 kts 19°
2026-04-22 09:59 51.46506 10.01484 38362 ft 428 kts 19°
2026-04-22 09:59 51.52127 10.04618 38366 ft 428 kts 19°
2026-04-22 10:00 51.57752 10.07755 38359 ft 428 kts 19°
2026-04-22 10:00 51.63373 10.10901 38365 ft 428 kts 19°
2026-04-22 10:01 51.68984 10.14051 38367 ft 427 kts 20°
2026-04-22 10:01 51.74597 10.17209 38371 ft 427 kts 20°
2026-04-22 10:02 51.80205 10.20374 38370 ft 427 kts 20°
2026-04-22 10:02 51.85813 10.23546 38350 ft 426 kts 20°
2026-04-22 10:03 51.91414 10.26723 38368 ft 426 kts 20°
2026-04-22 10:03 51.97009 10.29905 38375 ft 426 kts 20°
2026-04-22 10:04 52.02606 10.33097 38384 ft 426 kts 20°
2026-04-22 10:04 52.08197 10.36294 38384 ft 426 kts 20°
2026-04-22 10:05 52.13788 10.39499 38390 ft 426 kts 20°
2026-04-22 10:05 52.19334 10.42686 38392 ft 425 kts 20°
2026-04-22 10:06 52.24914 10.45902 38402 ft 425 kts 20°
2026-04-22 10:06 52.30491 10.49125 38402 ft 425 kts 20°
2026-04-22 10:07 52.36068 10.52356 38399 ft 425 kts 20°
2026-04-22 10:07 52.41642 10.55595 38401 ft 425 kts 20°
2026-04-22 10:08 52.47216 10.58842 38393 ft 425 kts 20°
2026-04-22 10:08 52.51885 10.61569 38391 ft 425 kts 20°
2026-04-22 10:09 52.57460 10.64832 38383 ft 425 kts 20°
2026-04-22 10:09 52.62996 10.68082 38376 ft 426 kts 21°
2026-04-22 10:10 52.68571 10.71363 38376 ft 426 kts 21°
2026-04-22 10:10 52.74146 10.74654 38374 ft 425 kts 21°
2026-04-22 10:11 52.79720 10.77952 38368 ft 426 kts 21°
2026-04-22 10:11 52.85299 10.81263 38368 ft 426 kts 21°
2026-04-22 10:12 52.90879 10.84583 38368 ft 426 kts 21°
2026-04-22 10:12 52.96450 10.87908 38369 ft 426 kts 21°
2026-04-22 10:13 53.02030 10.91246 38368 ft 426 kts 21°
2026-04-22 10:13 53.07606 10.94591 38368 ft 426 kts 21°
2026-04-22 10:14 53.13175 10.97943 38363 ft 426 kts 21°
2026-04-22 10:14 53.18740 11.01300 38360 ft 425 kts 21°
2026-04-22 10:15 53.24307 11.04668 38363 ft 425 kts 21°
2026-04-22 10:15 53.29867 11.08041 38362 ft 425 kts 21°
2026-04-22 10:16 53.35419 11.11418 38357 ft 425 kts 21°
2026-04-22 10:16 53.40972 11.14806 38362 ft 425 kts 21°
2026-04-22 10:17 53.46521 11.18200 38354 ft 424 kts 21°
2026-04-22 10:17 53.52031 11.21579 38354 ft 424 kts 21°
2026-04-22 10:18 53.57570 11.24987 38353 ft 424 kts 21°
2026-04-22 10:18 53.60343 11.26696 38357 ft 411 kts 22°
2026-04-22 10:18 53.62953 11.28307 38137 ft 401 kts 22°
2026-04-22 10:19 53.65568 11.29923 37569 ft 399 kts 22°
2026-04-22 10:19 53.68205 11.31556 37004 ft 398 kts 22°
2026-04-22 10:19 53.70763 11.33141 36537 ft 395 kts 22°
2026-04-22 10:19 53.73331 11.34735 36046 ft 393 kts 22°
2026-04-22 10:20 53.75890 11.36325 35561 ft 390 kts 22°
2026-04-22 10:20 53.78429 11.37905 35090 ft 388 kts 23°
2026-04-22 10:20 53.80958 11.39480 34623 ft 386 kts 23°
2026-04-22 10:20 53.83472 11.41048 34111 ft 384 kts 23°
2026-04-22 10:21 53.85978 11.42613 33575 ft 382 kts 23°
2026-04-22 10:21 53.88460 11.44165 33110 ft 379 kts 23°
2026-04-22 10:21 53.90918 11.45704 32701 ft 374 kts 23°
2026-04-22 10:21 53.93342 11.47224 32347 ft 368 kts 24°
2026-04-22 10:22 53.95714 11.48713 32153 ft 360 kts 24°
2026-04-22 10:22 53.98069 11.50192 32039 ft 360 kts 24°
2026-04-22 10:22 54.00413 11.51668 31914 ft 359 kts 24°
2026-04-22 10:22 54.02753 11.53141 31693 ft 358 kts 24°
2026-04-22 10:23 54.05122 11.54636 31411 ft 370 kts 24°
2026-04-22 10:23 54.07586 11.56192 30920 ft 382 kts 24°
2026-04-22 10:23 54.10088 11.57774 30428 ft 386 kts 24°
2026-04-22 10:23 54.12605 11.59367 29857 ft 385 kts 24°
2026-04-22 10:24 54.15108 11.60952 29348 ft 382 kts 24°
2026-04-22 10:24 54.17593 11.62529 28858 ft 380 kts 24°
2026-04-22 10:24 54.20056 11.64094 28381 ft 377 kts 24°
2026-04-22 10:24 54.22504 11.65650 27900 ft 374 kts 24°
2026-04-22 10:25 54.24938 11.67200 27432 ft 371 kts 23°
2026-04-22 10:25 54.27349 11.68737 26964 ft 369 kts 23°
2026-04-22 10:25 54.29734 11.70260 26517 ft 366 kts 23°
2026-04-22 10:25 54.32117 11.71783 26066 ft 364 kts 23°
2026-04-22 10:26 54.34485 11.73298 25627 ft 361 kts 23°
2026-04-22 10:26 54.36834 11.74803 25199 ft 359 kts 23°
2026-04-22 10:26 54.39165 11.76300 24775 ft 357 kts 23°
2026-04-22 10:26 54.41487 11.77790 24351 ft 355 kts 23°
2026-04-22 10:27 54.43785 11.79268 24032 ft 349 kts 23°
2026-04-22 10:27 54.45972 11.80883 23921 ft 336 kts 27°
2026-04-22 10:27 54.48070 11.82550 23695 ft 332 kts 27°
2026-04-22 10:27 54.50206 11.84230 23288 ft 341 kts 27°
2026-04-22 10:28 54.52350 11.85906 22883 ft 345 kts 26°
2026-04-22 10:28 54.54523 11.87600 22481 ft 340 kts 26°
2026-04-22 10:28 54.56689 11.89290 22095 ft 335 kts 26°
2026-04-22 10:28 54.58801 11.90937 21701 ft 331 kts 26°
2026-04-22 10:29 54.60854 11.92541 21327 ft 327 kts 26°
2026-04-22 10:29 54.62807 11.94474 20878 ft 322 kts 38°
2026-04-22 10:29 54.64625 11.96709 20509 ft 319 kts 36°
2026-04-22 10:29 54.66447 11.98854 20161 ft 315 kts 36°
2026-04-22 10:30 54.68257 12.00962 19804 ft 313 kts 35°
2026-04-22 10:30 54.70062 12.03050 19448 ft 312 kts 35°
2026-04-22 10:30 54.71863 12.05125 19095 ft 310 kts 35°
2026-04-22 10:30 54.73659 12.07191 18741 ft 310 kts 35°
2026-04-22 10:31 54.75450 12.09252 18358 ft 309 kts 35°
2026-04-22 10:31 54.77238 12.11310 17973 ft 307 kts 34°
2026-04-22 10:31 54.79012 12.13354 17614 ft 306 kts 35°
2026-04-22 10:31 54.80778 12.15390 17266 ft 304 kts 35°
2026-04-22 10:32 54.82533 12.17416 16922 ft 302 kts 35°
2026-04-22 10:32 54.84277 12.19431 16577 ft 301 kts 35°
2026-04-22 10:32 54.86009 12.21435 16236 ft 298 kts 35°
2026-04-22 10:32 54.87725 12.23423 15901 ft 295 kts 35°
2026-04-22 10:33 54.89424 12.25392 15566 ft 293 kts 34°
2026-04-22 10:33 54.91111 12.27351 15235 ft 291 kts 34°
2026-04-22 10:33 54.92789 12.29300 14901 ft 289 kts 34°
2026-04-22 10:33 54.94454 12.31237 14573 ft 287 kts 35°
2026-04-22 10:34 54.96111 12.33180 14208 ft 287 kts 34°
2026-04-22 10:34 54.97763 12.35118 13843 ft 286 kts 34°
2026-04-22 10:34 54.99416 12.37057 13507 ft 285 kts 34°
2026-04-22 10:34 55.01062 12.38978 13123 ft 285 kts 34°
2026-04-22 10:35 55.02712 12.40901 12776 ft 285 kts 34°
2026-04-22 10:35 55.04354 12.42818 12453 ft 284 kts 34°
2026-04-22 10:35 55.05991 12.44731 12135 ft 283 kts 34°
2026-04-22 10:35 55.07625 12.46642 11812 ft 282 kts 34°
2026-04-22 10:36 55.09252 12.48546 11484 ft 281 kts 34°
2026-04-22 10:36 55.10869 12.50440 11158 ft 280 kts 34°
2026-04-22 10:36 55.12481 12.52331 10839 ft 278 kts 34°
2026-04-22 10:36 55.14074 12.54202 10671 ft 273 kts 34°
2026-04-22 10:37 55.15642 12.56044 10521 ft 271 kts 34°
2026-04-22 10:37 55.18766 12.59720 10137 ft 271 kts 34°
2026-04-22 10:37 55.20330 12.61564 9801 ft 271 kts 34°
2026-04-22 10:38 55.21889 12.63404 9491 ft 270 kts 34°
2026-04-22 10:38 55.23462 12.65187 9198 ft 268 kts 30°
2026-04-22 10:38 55.25098 12.66744 8865 ft 266 kts 29°
2026-04-22 10:38 55.26712 12.68295 8569 ft 263 kts 29°
2026-04-22 10:39 55.28307 12.69840 8277 ft 261 kts 30°
2026-04-22 10:39 55.29867 12.71360 7970 ft 260 kts 30°
2026-04-22 10:39 55.31445 12.72903 7670 ft 259 kts 30°
2026-04-22 10:39 55.33045 12.74341 7338 ft 260 kts 19°
2026-04-22 10:40 55.34849 12.74628 6968 ft 265 kts 352°
2026-04-22 10:40 55.36555 12.73417 6653 ft 268 kts 327°
2026-04-22 10:40 55.37869 12.71086 6327 ft 270 kts 311°
2026-04-22 10:40 55.39063 12.68497 5988 ft 268 kts 311°
2026-04-22 10:41 55.40232 12.65941 5649 ft 268 kts 311°
2026-04-22 10:41 55.41397 12.63366 5189 ft 272 kts 309°
2026-04-22 10:41 55.42187 12.60397 4832 ft 275 kts 282°
2026-04-22 10:41 55.42088 12.57070 4601 ft 274 kts 254°
2026-04-22 10:42 55.41153 12.54175 4438 ft 268 kts 228°
2026-04-22 10:42 55.39811 12.51973 4278 ft 260 kts 222°
2026-04-22 10:42 55.38497 12.49909 4106 ft 254 kts 222°
2026-04-22 10:42 55.37197 12.47875 3974 ft 245 kts 222°
2026-04-22 10:43 55.35949 12.45908 3949 ft 240 kts 222°
2026-04-22 10:43 55.34702 12.43973 3965 ft 236 kts 222°
2026-04-22 10:43 55.33706 12.41793 3913 ft 226 kts 249°
2026-04-22 10:43 55.33512 12.39169 3804 ft 210 kts 284°
2026-04-22 10:44 55.34046 12.36957 3817 ft 187 kts 303°
2026-04-22 10:44 55.34682 12.35075 3773 ft 173 kts 305°
2026-04-22 10:44 55.35493 12.33637 3688 ft 162 kts 341°
2026-04-22 10:44 55.36576 12.33330 3411 ft 160 kts
2026-04-22 10:45 55.37727 12.33396 2985 ft 169 kts
2026-04-22 10:45 55.38919 12.33506 2989 ft 178 kts
2026-04-22 10:45 55.40205 12.33628 3005 ft 190 kts
2026-04-22 10:45 55.41531 12.33920 2985 ft 194 kts 20°
2026-04-22 10:46 55.42708 12.35065 3034 ft 195 kts 36°
2026-04-22 10:46 55.43760 12.36566 3025 ft 195 kts 40°
2026-04-22 10:46 55.44784 12.38142 3021 ft 195 kts 41°
2026-04-22 10:46 55.45804 12.39711 3009 ft 191 kts 40°
2026-04-22 10:47 55.46753 12.41167 3024 ft 170 kts 40°
2026-04-22 10:47 55.47627 12.42511 2956 ft 166 kts 40°
2026-04-22 10:47 55.48491 12.43837 2754 ft 164 kts 41°
2026-04-22 10:47 55.49349 12.45154 2547 ft 163 kts 40°
2026-04-22 10:48 55.50205 12.46472 2335 ft 163 kts 40°
2026-04-22 10:48 55.51061 12.47787 2123 ft 163 kts 40°
2026-04-22 10:48 55.51908 12.49098 1888 ft 162 kts 40°
2026-04-22 10:48 55.52741 12.50375 1686 ft 153 kts 40°
2026-04-22 10:49 55.53509 12.51558 1490 ft 139 kts 39°
2026-04-22 10:49 55.54222 12.52653 1284 ft 133 kts 40°
2026-04-22 10:49 55.54914 12.53714 1099 ft 133 kts 39°
2026-04-22 10:49 55.55615 12.54790 938 ft 134 kts 40°
2026-04-22 10:50 55.56322 12.55878 759 ft 136 kts 36°
2026-04-22 10:50 55.57041 12.56982 609 ft 138 kts 37°
2026-04-22 10:50 55.57766 12.58109 415 ft 140 kts 36°
2026-04-22 10:50 55.58501 12.59236 245 ft 139 kts 36°
2026-04-22 10:51 55.59223 12.60362 56 ft 138 kts 36°
2026-04-22 10:51 55.59904 12.61399 20 ft 118 kts 40°
2026-04-22 10:51 55.60443 12.62244 21 ft 87 kts 40°
2026-04-22 10:51 55.60822 12.62825 21 ft 62 kts 41°
2026-04-22 10:52 55.61030 12.63153 23 ft 26 kts 40°
2026-04-22 10:52 55.61149 12.63324 24 ft 18 kts 18°
2026-04-22 10:52 55.61255 12.63321 21 ft 9 kts 355°
2026-04-22 10:52 55.61305 12.63316 21 ft 7 kts 356°
2026-04-22 10:53 55.61367 12.63309 20 ft 10 kts
2026-04-22 10:53 55.61432 12.63395 20 ft 15 kts 41°
2026-04-22 10:53 55.61540 12.63561 20 ft 25 kts 40°
2026-04-22 10:53 55.61680 12.63772 20 ft 25 kts 44°
2026-04-22 10:54 55.61792 12.63953 20 ft 18 kts 41°
2026-04-22 10:54 55.61900 12.64095 20 ft 20 kts 26°
2026-04-22 10:54 55.62033 12.64206 21 ft 23 kts 24°
2026-04-22 10:54 55.62147 12.64302 19 ft 15 kts 25°
2026-04-22 10:55 55.62246 12.64403 20 ft 17 kts 59°
2026-04-22 10:55 55.62278 12.64525 20 ft 0 kts 65°
2026-04-22 10:56 55.62278 12.64526 20 ft 1 kts 65°
2026-04-22 10:56 55.62290 12.64575 19 ft 10 kts 66°
2026-04-22 10:56 55.62323 12.64702 20 ft 12 kts 66°
2026-04-22 10:57 55.62350 12.64847 20 ft 12 kts 97°
2026-04-22 10:57 55.62306 12.64990 20 ft 15 kts 123°
2026-04-22 10:57 55.62277 12.65144 20 ft 14 kts 66°
2026-04-22 10:57 55.62298 12.65308 20 ft 12 kts 57°
2026-04-22 10:58 55.62378 12.65331 20 ft 13 kts 358°
2026-04-22 10:58 55.62434 12.65355 21 ft 4 kts 56°
2026-04-22 10:58 55.62439 12.65463 20 ft 16 kts 88°
2026-04-22 10:58 55.62442 12.65643 19 ft 7 kts 89°
2026-04-22 10:59 55.62458 12.65683 20 ft 4 kts 16°
2026-04-22 10:59 55.62501 12.65685 19 ft 6 kts 358°
2026-04-22 10:59 55.62517 12.65684 19 ft 0 kts 358°